Temp
11 12 13 14 15 17 19 25 27 28 26 28 27 28 25 24 25 27 32 32 31 31 30 29 29 29 27 26 25 25 24 24 23 23 23 23 23 23 24 23 24 25 25 25
11 14 15 15 18 20 21 24 26 27 26 27 24 24 23 22 24 28 31 32 32 31 30 29 29 29 27 26 25 25 24 24 23 23 23 22 23 23 23 23 23 23 24 24
10 14 16 19 20 21 24 20 22 26 26 25 23 22 21 21 22 26 31 31 32 31 30 30 29 29 27 26 26 24 24 24 23 23 22 22 22 22 22 22 22 22 23 23
9 13 19 19 18 20 20 20 20 20 22 24 22 22 22 21 21 21 22 29 31 32 31 30 30 29 28 27 26 25 24 24 23 23 22 22 22 22 22 22 22 22 22 22
12 13 20 19 17 17 17 18 20 19 20 23 24 24 22 21 21 20 21 22 23 28 29 29 29 29 28 27 26 25 24 24 24 23 23 22 22 22 22 22 22 22 22 23
11 14 17 16 16 18 20 16 18 18 19 19 22 20 18 20 20 21 21 21 21 24 28 29 29 29 28 27 26 26 25 25 24 24 24 23 23 23 23 23 23 22 22 22
11 12 14 15 15 18 16 15 15 15 16 18 17 17 19 19 19 20 21 21 22 22 22 25 28 29 28 28 27 28 27 26 25 25 25 24 24 23 23 23 23 23 23 23
12 14 15 14 15 15 13 16 15 14 14 15 17 19 18 18 18 19 19 20 21 21 21 24 25 27 25 25 27 28 28 28 27 26 25 25 24 24 24 23 23 23 23 23
10 12 13 13 13 13 14 14 13 13 14 16 18 18 17 16 17 18 18 19 19 20 21 22 24 24 23 23 26 27 27 28 28 27 26 26 25 24 24 24 24 23 23 23
9 11 11 12 13 13 12 12 13 14 14 15 16 17 17 16 16 16 17 18 18 19 19 20 23 24 24 25 25 26 25 26 26 26 26 26 25 25 25 24 24 24 24 24
10 11 11 13 13 13 12 11 12 13 14 14 15 16 15 15 14 15 15 17 18 18 18 20 22 23 24 25 25 25 25 25 25 25 24 24 24 24 24 25 25 24 24 24
9 10 10 10 11 12 11 10 11 11 12 13 14 16 16 14 14 14 15 16 17 18 18 20 21 23 23 24 24 23 23 24 25 25 25 24 23 20 21 23 24 25 25 25
9 10 10 11 11 11 11 11 10 11 12 12 13 15 16 14 14 15 16 16 16 16 18 19 21 22 22 24 24 23 23 24 24 25 24 23 21 19 18 19 22 24 24 24
10 10 10 11 10 10 11 12 12 11 12 13 14 15 16 15 15 15 15 16 18 18 19 19 20 21 22 22 23 23 23 23 23 24 24 23 22 20 20 20 19 19 20 21
9 10 9 10 10 10 10 11 11 11 11 12 13 15 15 14 14 14 17 18 18 18 18 18 19 21 21 21 23 23 22 22 21 22 23 22 22 20 20 19 18 17 18 18
9 9 9 8 9 10 10 10 11 11 11 12 12 14 15 14 14 14 15 16 16 13 14 15 16 18 20 21 21 23 22 22 21 21 19 20 19 18 17 16 16 17 17 17
8 8 8 8 8 8 8 10 10 11 10 11 12 13 13 13 12 13 13 14 15 15 15 14 14 17 19 21 21 21 22 21 20 20 18 17 17 16 16 16 15 15 15 16
7 7 7 7 7 7 7 7 8 8 9 9 9 10 10 10 10 9 9 10 12 12 13 14 15 16 18 20 20 21 22 20 19 18 17 16 15 15 15 15 14 14 13 14
8 7 7 7 7 7 7 6 6 6 6 7 8 8 8 8 8 8 8 8 8 9 9 11 13 14 17 18 20 20 19 18 17 16 15 15 14 14 13 13 13 12 12 12
7 7 7 7 7 7 6 5 5 5 5 5 6 6 6 6 6 7 8 7 6 7 9 9 11 12 14 16 18 17 16 15 14 13 13 13 12 12 12 12 12 11 11 10
8 8 7 7 6 6 6 6 5 5 5 5 5 5 5 5 6 6 6 7 7 8 8 9 9 11 12 14 15 15 13 13 12 12 11 11 10 10 9 9 9 9 8 8
8 7 8 7 7 6 6 6 6 5 5 5 4 5 5 5 5 6 6 6 6 7 8 8 9 9 9 12 12 12 12 11 11 10 10 10 9 8 8 8 7 7 7 7
9 8 8 8 7 7 7 6 6 6 6 5 5 5 5 5 5 5 6 5 6 6 7 7 7 8 8 8 9 9 8 8 8 7 7 7 6 6 6 6 6 6 7 7
9 9 9 9 9 8 7 9 7 7 6 7 7 7 6 7 7 7 6 6 6 6 6 7 6 7 7 7 7 7 7 7 7 6 6 5 5 5 6 6 6 6 6 6
10 10 9 9 8 7 8 9 9 8 8 7 8 8 8 8 8 9 8 6 7 6 6 6 7 7 7 6 6 6 6 6 6 6 6 5 5 5 5 6 6 6 6 6
10 10 9 9 9 10 10 9 8 8 8 8 8 8 9 9 9 9 9 9 8 7 6 6 6 6 5 6 5 5 6 6 5 5 5 5 5 5 5 5 5 5 6 6
10 10 10 10 10 10 9 9 9 8 8 7 8 8 9 9 10 9 9 9 9 8 7 6 6 6 5 5 5 5 5 5 5 5 5 5 5 5 5 6 6 6 6 6
Height
770 761 755 749 742 725 724 691 692 686 691 670 668 662 662 658 649 639 633 637 644 655 664 673 685 696 706 714 720 728 736 744 749 755 762 768 773 777 782 787 791 796 801 804
760 741 735 738 722 708 701 687 679 677 678 657 662 659 659 656 642 635 627 632 637 644 655 667 677 685 696 707 713 721 728 734 740 748 755 760 765 770 775 778 782 787 791 794
768 732 725 721 710 697 677 698 688 684 670 660 666 665 666 657 652 638 628 628 634 639 649 659 668 678 688 694 705 714 722 728 736 743 748 752 757 762 767 771 775 778 782 786
769 739 714 707 704 695 694 700 696 690 673 665 665 667 663 659 660 649 640 629 628 633 643 653 664 674 685 694 701 709 717 723 730 735 741 747 752 755 759 764 767 770 773 777
758 743 701 702 709 717 712 712 701 698 687 674 661 655 666 666 659 652 642 637 636 637 645 654 662 671 679 688 695 703 708 713 720 727 732 739 744 746 750 756 759 761 764 768
759 738 714 719 708 699 692 725 711 706 698 690 669 690 697 678 667 656 645 642 641 642 647 654 663 669 678 685 692 696 700 704 712 718 724 729 732 737 740 746 749 753 756 759
754 744 727 720 712 693 721 743 726 720 712 703 702 707 698 687 676 668 658 654 651 649 652 656 659 665 673 681 684 684 695 703 708 710 714 719 725 731 735 739 743 746 749 751
742 730 726 724 710 716 736 731 731 726 721 716 709 704 700 694 687 677 667 663 660 659 661 662 661 667 673 679 683 687 693 697 700 705 710 716 719 724 728 733 736 739 742 744
756 739 731 730 730 730 731 733 733 731 725 719 712 708 705 703 697 691 681 677 673 669 670 669 671 674 677 682 683 684 688 691 694 699 704 709 712 717 722 726 729 731 734 737
758 742 740 732 732 732 731 735 733 731 727 722 718 712 707 706 702 699 691 685 683 679 678 678 678 678 680 683 683 685 687 689 691 695 698 702 706 710 715 718 720 724 726 729
755 746 739 728 734 735 731 730 730 726 726 724 720 715 713 710 707 704 698 689 686 684 685 684 684 683 682 683 684 684 686 687 689 692 694 698 702 704 707 709 712 715 717 720
760 755 754 742 731 735 736 734 732 732 723 721 723 719 714 712 710 706 702 695 693 690 688 687 687 687 685 684 686 687 687 687 688 689 691 693 695 699 702 704 707 710 712 715
758 750 744 738 737 734 737 736 732 730 726 722 721 720 715 715 710 706 701 695 696 695 691 691 691 689 686 686 686 687 688 687 685 685 687 689 692 696 699 702 703 706 709 712
759 751 746 741 737 734 733 731 728 725 724 720 719 718 715 713 710 706 701 697 696 691 689 687 685 685 687 688 687 686 685 684 682 680 682 685 688 691 695 698 701 705 708 710
759 758 755 747 740 731 727 726 725 726 724 718 715 716 715 710 709 706 700 700 697 691 690 689 688 689 690 689 687 686 685 684 682 678 679 682 685 690 695 698 701 706 710 714
766 761 758 747 740 733 722 716 718 717 713 718 717 713 716 715 709 704 702 701 697 700 700 699 696 694 690 691 691 688 686 685 683 680 680 681 686 691 696 701 705 709 711 715
769 760 751 745 745 739 734 727 719 716 715 712 706 709 710 706 702 701 700 698 699 699 699 699 696 693 691 689 689 690 687 685 683 682 683 685 689 692 698 703 708 711 713 716
773 770 765 759 751 743 739 735 729 723 716 713 711 712 708 709 706 707 705 703 700 698 695 693 690 687 686 686 690 690 685 683 682 681 684 688 693 699 703 707 711 713 717 719
769 766 764 756 752 755 753 747 742 736 730 726 724 723 723 723 717 713 709 707 705 702 699 697 695 693 690 687 685 686 683 680 680 682 684 689 694 701 706 711 714 718 721 722
771 769 766 764 762 758 757 756 753 747 742 736 732 728 726 723 721 715 708 710 708 711 706 702 699 695 691 686 682 683 684 682 682 684 687 691 694 700 707 712 715 718 722 726
771 770 771 771 771 768 764 761 757 752 749 744 738 736 732 729 723 722 720 719 715 714 711 706 702 697 690 686 682 681 682 684 685 687 691 698 705 706 708 712 718 722 724 727
770 770 770 771 772 772 771 768 763 758 753 750 746 743 741 738 733 730 727 725 722 716 711 708 705 702 692 687 684 681 687 689 690 694 695 701 705 714 715 715 721 727 729 730
770 772 772 772 772 772 772 771 768 764 758 756 753 750 746 743 740 736 733 732 729 724 717 715 706 700 690 689 686 689 690 692 694 698 704 707 712 717 723 721 723 729 734 735
771 772 773 772 772 772 770 768 767 766 762 757 756 752 750 746 744 742 741 740 736 731 728 722 713 706 700 703 695 692 699 701 701 705 715 714 723 730 721 728 732 732 739 742
771 771 771 771 771 771 768 767 765 764 762 759 755 751 748 747 747 746 746 747 747 740 733 729 723 717 709 707 708 704 707 711 717 718 711 726 737 742 738 735 730 739 747 745
773 773 771 770 771 770 769 768 767 765 762 759 756 754 752 751 749 747 748 747 745 742 740 737 734 730 725 723 723 716 720 724 727 725 727 736 745 746 737 745 740 738 751 751
774 773 772 772 772 772 771 770 768 767 765 763 760 757 756 754 752 751 750 750 747 745 744 744 742 741 740 737 734 732 734 735 738 741 739 739 747 751 750 750 746 746 751 754
Wind_Speed
11 19 21 22 23 24 13 12 14 11 12 12 8 6 7 10 11 17 26 26 23 22 20 21 29 31 32 35 37 38 36 35 36 37 38 38 39 40 40 39 42 45 41 40
14 20 17 18 18 19 20 19 6 5 12 3 3 3 11 12 9 11 18 23 24 24 23 22 29 33 35 34 36 38 38 38 39 36 37 38 39 38 38 40 41 41 43 44
7 8 12 6 7 11 4 17 4 9 4 4 6 12 13 15 12 6 19 21 23 23 22 20 33 37 36 38 35 36 35 34 33 33 33 35 36 35 37 38 37 38 39 40
6 8 6 10 11 8 20 21 18 11 8 4 13 8 14 16 13 10 8 9 20 19 20 31 33 34 28 30 33 32 31 31 31 33 33 33 32 33 35 35 37 38 37 37
4 4 2 4 9 11 5 17 19 18 17 6 3 7 14 18 17 12 9 6 4 8 16 23 27 30 29 29 30 30 31 34 34 35 33 32 33 35 35 32 33 36 38 38
3 5 3 4 19 22 11 10 20 18 18 17 7 9 5 18 17 16 16 11 9 12 22 26 25 27 26 25 26 28 32 35 35 36 35 34 37 36 35 34 34 32 32 34
9 5 2 7 21 13 7 1 14 14 15 14 12 2 6 12 14 14 14 17 18 20 17 9 27 32 29 28 30 37 27 26 31 37 39 37 34 32 31 31 30 29 30 31
2 3 4 12 7 7 3 3 10 11 15 10 7 9 9 11 14 16 17 18 23 19 18 18 17 24 16 11 10 17 22 29 33 34 31 29 33 32 32 29 28 27 26 26
1 3 2 10 2 7 8 6 11 12 13 16 12 8 7 8 11 12 13 16 20 17 17 25 28 26 23 15 9 5 17 27 32 32 33 32 32 29 27 28 26 24 24 23
7 6 11 13 6 9 12 12 13 11 12 13 15 12 8 7 9 9 10 13 17 17 15 15 21 22 20 15 13 13 9 4 14 24 29 29 29 27 26 25 25 24 21 21
5 5 16 7 10 13 14 14 15 16 12 12 12 14 6 6 7 8 11 16 18 16 14 15 12 15 16 16 11 9 7 8 4 5 17 23 24 23 26 27 27 25 26 25
3 10 7 14 15 13 10 14 14 14 17 13 10 11 7 6 7 9 11 16 17 18 18 18 12 8 12 14 11 10 8 6 6 4 6 15 22 17 20 25 26 27 26 23
5 13 10 14 14 12 10 10 12 13 10 13 13 9 5 3 8 15 17 18 17 16 18 17 12 8 9 9 8 8 9 8 7 7 8 14 18 17 14 8 12 20 21 18
13 11 9 10 9 11 10 11 13 15 19 17 14 14 7 3 6 11 14 21 23 22 19 20 18 14 11 9 10 9 10 7 9 8 7 11 16 19 18 17 16 15 13 13
15 14 10 10 10 12 11 9 12 13 13 12 17 11 5 4 3 7 11 13 16 17 19 20 16 12 12 10 10 10 8 5 4 1 2 9 15 19 19 17 18 19 19 17
13 13 14 18 17 16 15 8 6 8 6 9 9 14 9 7 3 2 4 5 6 6 11 13 14 15 15 11 10 4 3 4 7 10 11 14 15 19 19 19 19 18 17 14
15 17 16 19 17 18 17 13 10 9 9 9 7 10 10 6 5 6 6 4 3 2 5 9 14 15 15 15 13 6 8 11 14 17 18 17 19 23 23 25 18 19 16 12
4 7 9 11 15 17 18 17 17 18 14 15 14 12 12 11 7 9 10 10 5 5 9 12 16 18 16 17 15 13 16 18 19 21 23 26 25 22 22 20 19 21 21 18
11 9 15 19 20 16 16 18 21 22 23 19 15 13 13 13 11 7 8 9 12 10 15 15 12 9 9 10 13 21 22 24 25 27 29 32 28 25 23 22 21 19 17 17
7 12 15 16 22 25 18 20 21 23 25 22 20 19 18 21 20 14 11 12 14 13 14 15 11 6 4 5 15 18 19 22 23 23 25 26 28 28 25 24 22 20 18 16
2 4 7 8 9 11 13 15 17 18 20 24 25 21 19 20 19 19 16 11 22 17 12 11 10 4 3 10 16 20 22 22 23 24 23 21 19 22 25 25 23 22 22 20
3 1 1 1 2 5 7 9 14 17 19 22 24 26 23 23 24 20 23 21 24 23 18 20 16 12 10 20 21 24 21 20 21 21 24 23 23 18 23 27 26 23 23 23
9 5 3 4 4 5 7 3 5 11 15 15 16 18 19 20 19 15 10 28 26 26 26 25 27 24 25 27 31 28 27 27 28 29 27 26 26 24 20 24 28 26 25 24
7 11 9 8 6 7 7 7 6 2 8 18 15 11 14 16 19 16 19 26 26 23 26 29 32 35 33 24 32 34 30 29 32 33 32 33 30 23 33 31 31 30 25 23
9 5 8 13 11 9 5 7 4 2 4 2 7 12 13 7 8 13 13 2 17 25 25 27 29 33 37 32 30 36 34 31 31 35 39 35 29 25 25 30 31 26 22 22
6 7 3 5 5 6 6 9 11 9 11 12 11 6 4 9 11 6 9 13 10 16 23 26 28 26 29 30 28 35 34 32 31 34 36 33 27 24 27 23 23 24 17 16
8 7 8 7 9 8 9 13 16 14 12 11 11 7 10 11 6 9 5 7 12 17 15 16 21 22 24 27 28 28 26 27 27 27 28 28 22 19 18 17 17 16 13 12
Wind_Direction
255 271 275 273 274 281 283 251 204 224 232 245 254 296 295 273 238 223 205 193 188 189 189 190 190 191 192 196 193 192 194 197 201 204 208 213 217 220 223 225 229 232 234 237
289 268 252 248 261 255 249 256 205 222 242 180 75 52 4 343 289 209 189 188 188 189 187 185 186 189 191 192 192 190 194 198 202 202 204 209 215 218 219 223 226 228 230 235
266 334 316 200 336 312 112 36 322 208 281 240 48 44 11 356 336 244 193 185 189 185 185 186 187 187 188 191 188 189 193 200 201 202 203 207 211 213 216 219 221 223 227 228
280 314 194 140 33 6 70 43 19 357 301 105 108 97 39 12 357 9 4 210 187 185 185 189 187 189 183 182 185 187 193 197 199 199 203 206 207 210 215 216 220 223 225 227
260 302 115 354 358 338 338 40 19 15 15 342 84 54 26 1 358 1 4 33 71 145 163 169 175 178 175 178 182 183 191 198 199 200 201 202 205 210 213 212 217 222 227 229
308 251 129 293 324 316 203 42 358 359 24 14 22 66 327 337 344 1 24 25 40 100 144 156 164 166 167 174 180 193 200 202 200 200 203 202 208 212 213 213 218 221 225 229
239 266 219 320 318 310 69 315 340 354 0 16 40 16 312 337 357 8 28 28 37 57 74 108 172 171 178 181 194 208 205 200 202 207 208 208 208 212 212 212 216 221 225 228
272 219 170 330 334 81 190 328 355 357 1 350 10 14 15 3 5 6 21 23 26 51 55 71 119 163 130 138 190 210 211 207 208 211 209 208 211 212 213 213 215 220 223 229
289 301 12 341 99 79 39 15 360 351 348 356 351 1 7 347 3 359 15 20 23 35 53 65 76 87 85 72 91 155 212 211 214 215 215 212 208 210 206 210 215 219 222 228
307 24 331 312 89 48 359 340 333 341 336 341 345 338 4 360 359 355 4 18 16 34 37 43 68 68 67 63 64 70 81 147 217 220 214 211 211 208 208 209 214 220 220 224
271 317 324 45 351 334 334 334 336 329 337 331 334 338 336 1 356 346 350 11 18 26 23 28 40 55 59 49 40 42 34 25 20 231 223 216 211 209 212 220 218 214 219 219
299 297 281 283 292 315 323 319 325 319 320 326 324 322 328 354 344 352 356 16 14 12 10 10 20 39 60 48 39 29 17 356 337 305 238 214 204 202 220 222 222 224 230 231
321 315 287 265 290 291 284 282 291 301 293 294 303 301 324 313 339 356 6 10 1 352 359 1 358 34 44 49 32 19 358 312 287 279 239 208 203 190 152 115 224 228 230 231
8 352 6 355 315 303 285 269 261 266 277 279 281 290 278 289 331 4 358 350 351 358 3 2 5 11 14 17 16 356 331 296 290 271 246 207 202 195 177 154 128 110 129 153
21 19 3 345 337 322 294 259 256 238 242 269 276 280 257 276 322 332 355 357 353 1 358 354 350 338 342 344 351 3 358 349 353 52 178 184 193 182 168 151 135 129 126 125
16 25 19 23 13 2 343 332 280 277 260 248 261 271 265 252 252 354 13 9 48 14 341 334 322 315 318 307 301 355 59 117 119 109 117 134 140 132 123 120 121 125 124 126
24 17 16 23 16 13 10 8 2 322 288 277 269 264 297 347 39 13 359 7 345 311 316 320 316 311 300 290 288 254 161 144 135 116 107 104 109 114 116 118 109 106 106 113
35 16 22 37 24 19 15 10 14 12 11 21 29 12 9 1 357 346 345 339 346 335 344 331 318 312 301 285 269 207 169 155 141 127 123 111 106 106 108 107 108 106 101 99
26 32 27 39 41 27 18 17 18 20 25 24 31 34 32 12 358 353 33 33 11 352 339 333 320 300 282 266 238 197 176 159 145 135 130 127 117 115 110 108 104 98 91 86
32 45 46 34 41 46 28 27 28 31 29 30 38 36 29 23 10 6 42 38 23 353 355 342 314 296 289 176 175 173 157 144 133 128 128 125 125 121 120 120 118 109 102 98
43 54 65 47 20 25 39 40 35 31 28 32 33 30 26 21 20 24 23 21 13 17 17 19 3 330 105 141 157 148 139 127 123 119 113 108 106 112 116 113 110 110 108 103
208 199 65 8 342 352 12 20 43 46 45 41 34 32 28 23 20 24 29 15 3 22 29 31 36 40 70 118 114 110 104 102 99 101 103 103 100 99 101 102 101 97 97 97
208 210 221 266 275 282 285 315 6 47 67 58 45 39 30 23 24 15 19 14 21 27 29 27 37 57 67 72 83 84 85 85 87 87 82 85 96 95 89 93 97 93 90 87
206 215 231 248 272 300 310 312 268 17 68 71 57 59 54 28 38 49 50 26 24 36 37 40 44 58 61 61 78 75 76 81 83 83 86 80 78 84 89 89 89 90 85 80
102 120 225 244 269 300 307 273 323 294 271 334 40 40 21 344 3 16 34 85 46 43 39 46 50 56 65 53 62 77 78 80 91 98 91 92 93 88 88 90 87 78 75 73
80 67 87 159 82 37 31 78 62 45 49 44 53 65 48 24 27 15 16 53 87 69 63 59 52 53 66 74 68 79 86 88 86 91 95 97 95 91 84 84 86 89 79 72
82 84 107 109 75 53 65 71 56 40 42 46 62 48 52 65 88 65 145 53 52 79 95 80 75 71 73 78 79 82 88 93 97 97 95 91 89 84 81 79 77 76 73 57